This demonstration page uses our WeatherBlox Daily Observations layout. Learn more.

Left ArrowRight Arrow

53.62937, 11.41316

Hourly Observations for June 6, 2017

Temp ( °F °C ) Dew Point ( °F °C ) Humidity (%) Winds ( mph kmh ) Pressure ( in mb ) Visibility ( mi km ) Precip ( " mm )
6:20 am 06:20 Mostly Sunny 54 12 52 11 94 94 NE 8 13 29.71 1006 7 11 N/A
6:50 am 06:50 Mostly Sunny 55 13 52 11 88 88 ENE 8 13 29.71 1006 7 11 N/A
7:20 am 07:20 Mostly Sunny 59 15 54 12 82 82 E 6 9 29.71 1006 7 11 N/A
7:50 am 07:50 Mostly Sunny 59 15 55 13 88 88 ESE 7 11 29.68 1005 7 11 N/A
8:20 am 08:20 Mostly Sunny 61 16 55 13 83 83 E 8 13 29.68 1005 7 11 N/A
8:50 am 08:50 Mostly Sunny 64 18 55 13 73 73 E 10 17 29.68 1005 7 11 N/A
9:20 am 09:20 Mostly Sunny 64 18 55 13 73 73 ESE 9 15 29.65 1004 7 11 N/A
9:50 am 09:50 Mostly Sunny 66 19 57 14 73 73 ESE 10 17 29.65 1004 7 11 N/A
10:20 am 10:20 Mostly Sunny 68 20 55 13 64 64 SE 9 15 29.65 1004 7 11 N/A
10:50 am 10:50 Mostly Sunny 68 20 55 13 64 64 ESE 10 17 29.62 1003 7 11 N/A
11:20 am 11:20 Mostly Sunny 70 21 57 14 64 64 ESE 13 20 29.62 1003 7 11 N/A
11:50 am 11:50 Mostly Sunny 72 22 57 14 61 61 SE 14 22 29.59 1002 7 11 N/A
12:20 pm 12:20 Mostly Sunny 73 23 55 13 53 53 SE 16 26 29.59 1002 7 11 N/A
12:50 pm 12:50 Mostly Sunny 72 22 55 13 57 57 SSE 17 28 29.56 1001 7 11 N/A
1:20 pm 13:20 Mostly Sunny 73 23 59 15 61 61 SE 17 28 29.56 1001 30 48 N/A
1:50 pm 13:50 Mostly Sunny 73 23 57 14 57 57 SE 17 28 29.56 1001 7 11 N/A
2:20 pm 14:20 Mostly Sunny 73 23 55 13 53 53 SSE 17 28 29.53 1000 7 11 N/A
2:50 pm 14:50 Mostly Sunny 73 23 57 14 57 57 SE 16 26 29.53 1000 7 11 N/A
3:20 pm 15:20 Mostly Sunny 75 24 55 13 50 50 SSE 18 30 29.53 1000 7 11 N/A
3:50 pm 15:50 Mostly Sunny 73 23 55 13 53 53 SSE 13 20 29.53 1000 7 11 N/A
4:20 pm 16:20 Mostly Sunny 73 23 55 13 53 53 SE 10 17 29.50 999 7 11 N/A
4:50 pm 16:50 Mostly Sunny 73 23 54 12 50 50 S 8 13 29.53 1000 7 11 N/A
5:20 pm 17:20 Windy with Rain Showers Likely 61 16 55 13 83 83 SW 22 35 29.56 1001 4 7 N/A
5:24 pm 17:24 Mostly Cloudy with Light Rain 59 15 55 13 88 88 SW 21 33 29.56 1001 30 48 N/A
5:50 pm 17:50 Mostly Cloudy with Light Rain 59 15 55 13 88 88 SW 15 24 29.56 1001 30 48 N/A

Powered by AerisWeather